Starlink 35634

operational
NORAD ID: 66173 Int'l Des: 2025-240 Owner: SPXS Country: US Constellation: starlink
LEOCIRCULAR

Starlink 35634について

説明を読み込み中...

リアルタイム位置

3D地球を読み込み中...

次回通過

高度履歴

Altitude vs Time

uPlot chart will show altitude changes over time

軌道要素

1 66173C 25240AD 25299.07618056 .00402030 00000+0 64876-3 0 2991
2 66173 53.1577 337.0905 0009020 266.8993 91.6893 16.02275384 19
Epoch: Oct 26, 2025 • Age: 117 hours

現在のステータス

高度 268.0 km
速度 7.75 km/s
衛星直下点 52.97°N, 51.48°E
打ち上げ日 Oct 25, 2025
運用期間 5 days
タイプ internet

技術仕様

分類 Payload
質量 575.00 kg
乾燥質量 530.00 kg
総質量 575.00 kg
長さ 0.30 m
直径 4.10 m
スパン 29.00 m
形状 Box + pan
製造者 SPXS
バスタイプ Starlink V2MO
フェーズステータス In Orbit
所有者/国 SPXS/US

大規模コンステレーション

Loading constellations...